[[{"header":{"parameterUnit":"m.s-1","parameterCategory":2,"la1":30.2991,"la2":30.254,"lo1":-89.0895,"lo2":-89.0444,"dy":0.0017,"dx":0.0017,"nx":28,"ny":28,"refTime":"2024-03-18T21:00:00:Z","depth":"0","parameterNumber":2,"parameterNumberName":"U-component_of_CURRENTS"},"data":[0,0,0,0,0,0,0,0,0,0,0,0,0,0,0,0,0,0,0,0,0,0,0,0,0,0,0,0,0,0,0,0,0,0,0,0,0,0,0,0,0,0,0,0,0,0,0,0,0,0,0,0,0,0,0,0,0,0,-0.1957,-0.1957,0,-0.1982,-0.1982,-0.1982,-0.1948,-0.1947,-0.1946,-0.1945,-0.192,-0.192,-0.192,0,0,0,0,0,0,0,0,0,0,0,0,0,-0.1899,-0.19,-0.1957,-0.1958,-0.1958,-0.1982,-0.1982,-0.1982,-0.1948,-0.1947,-0.1946,-0.1944,-0.192,-0.192,-0.192,0,0,0,0,0,0,0,0,0,0,0,0,0,-0.1922,-0.19,-0.1957,-0.1945,-0.1945,-0.1982,-0.1982,-0.1982,-0.1948,-0.1947,-0.1945,-0.1944,-0.1919,-0.192,-0.192,-0.1955,0,0,-0.1922,-0.1922,0,0,0,0,0,0,0,0,-0.1921,-0.1924,-0.1947,-0.1946,-0.1946,-0.1962,-0.1952,-0.1971,-0.1949,-0.1945,-0.1945,-0.1943,-0.1932,-0.1931,-0.1937,-0.1953,-0.1952,-0.1922,-0.1922,-0.1922,-0.1922,0,0,0,0,0,0,0,-0.1919,-0.1923,-0.1965,-0.1947,-0.1947,-0.1945,-0.1946,-0.1956,-0.1944,-0.1945,-0.1943,-0.195,-0.193,-0.1937,-0.1936,-0.1952,-0.1922,-0.1922,-0.1922,-0.1923,-0.1977,-0.1978,0,0,0,0,0,0,-0.1921,-0.1922,-0.1964,-0.1966,-0.1931,-0.1948,-0.1949,-0.1957,-0.1945,-0.1943,-0.1951,-0.1948,-0.1937,-0.1936,-0.1935,-0.1963,-0.1922,-0.1923,-0.1923,-0.1976,-0.1977,-0.1978,0,0,0,0,0,0,-0.192,-0.1925,-0.1963,-0.1945,-0.195,-0.195,-0.1959,-0.1958,-0.1958,-0.1951,-0.1946,-0.1951,-0.1936,-0.1934,-0.1942,-0.1962,-0.1923,-0.1923,-0.1974,-0.1976,-0.1978,-0.2026,0,0,0,0,0,0,-0.1918,-0.1924,-0.1928,-0.1946,-0.1952,-0.1986,-0.1961,-0.196,-0.1965,-0.1961,-0.195,-0.1946,-0.1934,-0.1942,-0.1943,-0.1962,-0.1924,-0.1973,-0.1975,-0.1977,-0.2023,-0.2029,-0.2034,0,0,0,0,0,-0.1916,-0.193,-0.1929,-0.1934,-0.1958,-0.1987,-0.199,-0.1983,-0.1967,-0.1975,-0.1965,-0.1946,-0.1956,-0.1943,-0.1944,-0.1963,-0.1972,-0.1974,-0.1977,-0.202,-0.2028,-0.2034,0,0,0,0,0,0,-0.1904,-0.1929,-0.1927,-0.1946,-0.1965,-0.1982,-0.1987,-0.1987,-0.1988,-0.1979,-0.1963,-0.196,-0.1974,-0.1966,-0.1952,-0.1986,-0.1961,-0.1964,-0.1993,-0.2,-0.2006,-0.1999,-0.1924,0,0,0,0,0,-0.1906,-0.1918,-0.1946,-0.1957,-0.1968,-0.1979,-0.1988,-0.199,-0.1996,-0.1993,-0.1986,-0.1982,-0.199,-0.1991,-0.1994,-0.2016,-0.2003,-0.2029,-0.2035,-0.204,-0.2035,-0.204,-0.2045,-0.1987,-0.1987,-0.1987,0,0,-0.1902,-0.1917,-0.1922,-0.1954,-0.1964,-0.1994,-0.1979,-0.1999,-0.2019,-0.1993,-0.2006,-0.2003,-0.2001,-0.2022,-0.2028,-0.2014,-0.2051,-0.2043,-0.2047,-0.204,-0.2043,-0.2048,-0.2053,-0.1989,-0.1988,-0.1988,0,0,-0.1908,-0.1917,-0.1934,-0.1958,-0.1985,-0.1999,-0.2007,-0.203,-0.2032,-0.2057,-0.2041,-0.205,-0.2059,-0.2064,-0.2067,-0.211,-0.2082,-0.211,-0.2133,-0.2138,-0.2143,-0.2147,-0.2142,-0.2144,-0.2112,-0.2113,-0.2113,0,-0.1902,-0.1928,-0.1943,-0.1974,-0.1991,-0.2004,-0.2033,-0.2052,-0.2072,-0.2079,-0.2064,-0.2084,-0.2082,-0.211,-0.2121,-0.2124,-0.2112,-0.2106,-0.2145,-0.2148,-0.2151,-0.2145,-0.2148,-0.2115,-0.2115,-0.2115,-0.2114,0,-0.1929,-0.1952,-0.1964,-0.2004,-0.2029,-0.2054,-0.2089,-0.2108,-0.2111,-0.2126,-0.2147,-0.2147,-0.2153,-0.2163,-0.2153,-0.2179,-0.216,-0.2152,-0.2125,-0.216,-0.2152,-0.2153,-0.2119,-0.2118,-0.2117,-0.2117,0,0,-0.1899,-0.197,-0.197,-0.1996,-0.2046,-0.207,-0.2111,-0.215,-0.2173,-0.2187,-0.2209,-0.2227,-0.2215,-0.2218,-0.2211,-0.2216,-0.2233,-0.219,-0.2189,-0.218,-0.2232,-0.2144,-0.2137,-0.2226,-0.2226,-0.2227,-0.2219,0,-0.1909,-0.1966,-0.2,-0.2048,-0.2079,-0.2113,-0.2152,-0.219,-0.2211,-0.2239,-0.2245,-0.2262,-0.2241,-0.2241,-0.2246,-0.2239,-0.2238,-0.2235,-0.2203,-0.2202,-0.2115,-0.2137,-0.2028,-0.2005,-0.222,-0.2221,-0.2221,0,-0.1915,-0.1953,-0.2004,-0.2072,-0.2089,-0.2121,-0.2173,-0.2212,-0.2261,-0.2276,-0.2292,-0.2295,-0.2311,-0.2283,-0.2283,-0.2277,-0.2253,-0.2243,-0.2242,-0.2141,-0.2116,-0.2004,-0.1999,-0.1967,-0.2223,-0.2223,-0.2223,0,-0.1874,-0.195,-0.1985,-0.201,-0.2095,-0.2116,-0.2154,-0.2211,-0.2238,-0.2289,-0.2304,-0.2329,-0.2329,-0.2318,-0.2289,-0.2287,-0.2276,-0.2275,-0.2174,-0.2168,-0.2057,-0.2039,-0.201,-0.2264,-0.2264,-0.2264,-0.2264,0,-0.1864,-0.189,-0.1968,-0.1989,-0.2027,-0.2094,-0.2132,-0.2177,-0.2234,-0.2258,-0.2305,-0.2316,-0.2333,-0.2328,-0.2303,-0.2235,-0.2285,-0.2173,-0.2158,-0.2071,-0.2055,-0.2007,-0.2025,-0.2264,-0.2264,-0.2264,-0.2264,0,-0.1807,-0.1865,-0.1907,-0.1988,-0.2008,-0.2029,-0.21,-0.2126,-0.2194,-0.2224,-0.2235,-0.2302,-0.2294,-0.2295,-0.2283,-0.2235,-0.2145,-0.2155,-0.2043,-0.2014,-0.1876,-0.1901,-0.186,-0.1809,-0.2047,-0.2045,-0.2043,0,-0.1783,-0.1799,-0.1874,-0.1888,-0.1918,-0.1962,-0.1986,-0.2078,-0.2106,-0.22,-0.2202,-0.2232,-0.2221,-0.2182,-0.2114,-0.2051,-0.2054,-0.1915,-0.1888,-0.1845,-0.1864,-0.1892,-0.1854,-0.1771,-0.1767,-0.1764,-0.1762,0,-0.172,-0.1742,-0.177,-0.18,-0.1826,-0.1858,-0.1903,-0.1929,-0.2029,-0.2067,-0.2108,-0.2115,-0.2084,-0.1974,-0.1897,-0.1852,-0.1852,-0.1843,-0.1833,-0.1667,-0.1662,-0.1611,-0.1806,-0.1733,-0.1736,-0.1738,-0.1739,-0.174,-0.1645,-0.1645,-0.1675,-0.169,-0.1716,-0.1727,-0.1717,-0.1782,-0.1815,-0.1842,-0.1935,-0.1907,-0.1849,-0.1722,-0.1673,-0.1542,-0.1627,-0.149,-0.1532,-0.1571,-0.149,-0.1609,-0.1494,-0.1496,-0.1497,-0.1498,-0.1499,0,-0.1548,-0.1554,-0.1562,-0.1577,-0.155,-0.1603,-0.1632,-0.1605,-0.16,-0.1656,-0.166,-0.1617,-0.1491,-0.1457,-0.133,-0.1253,-0.1242,-0.1238,-0.1264,-0.1246,-0.1366,-0.1318,-0.1117,-0.1117,-0.1117,-0.1117,-0.1117,-0.1117,-0.1497,-0.1467,-0.1472,-0.1396,-0.1396,-0.1325,-0.1312,-0.1298,-0.1315,-0.129,-0.1294,-0.1331,-0.132,-0.1327,-0.1194,-0.1127,-0.1116,-0.107,-0.1121,-0.1217,-0.1244,-0.1271,-0.1229,-0.1012,-0.1012,-0.0936,-0.0936,-0.0936]},{"header":{"parameterUnit":"m.s-1","parameterCategory":2,"la1":30.2991,"la2":30.254,"lo1":-89.0895,"lo2":-89.0444,"dy":0.0017,"dx":0.0017,"nx":28,"ny":28,"refTime":"2024-03-18T21:00:00:Z","depth":"0","parameterNumber":3,"parameterNumberName":"V-component_of_CURRENTS"},"data":[0,0,0,0,0,0,0,0,0,0,0,0,0,0,0,0,0,0,0,0,0,0,0,0,0,0,0,0,0,0,0,0,0,0,0,0,0,0,0,0,0,0,0,0,0,0,0,0,0,0,0,0,0,0,0,0,0,0,-0.029,-0.0289,0,-0.0229,-0.0228,-0.0227,-0.0186,-0.0185,-0.0185,-0.0185,-0.0109,-0.0107,-0.0105,0,0,0,0,0,0,0,0,0,0,0,0,0,-0.0335,-0.0334,-0.029,-0.0289,-0.0288,-0.0229,-0.0228,-0.0227,-0.0186,-0.0185,-0.0185,-0.0185,-0.0109,-0.0107,-0.0105,0,0,0,0,0,0,0,0,0,0,0,0,0,-0.0298,-0.0334,-0.029,-0.0261,-0.0258,-0.0229,-0.0228,-0.0227,-0.0186,-0.0185,-0.0185,-0.0185,-0.011,-0.0107,-0.0105,-0.0095,0,0,-0.0096,-0.0095,0,0,0,0,0,0,0,0,-0.03,-0.0297,-0.0266,-0.0263,-0.0259,-0.0215,-0.0216,-0.0182,-0.0186,-0.0213,-0.0185,-0.0185,-0.0143,-0.0138,-0.0127,-0.0092,-0.0088,-0.0096,-0.0094,-0.0093,-0.0093,0,0,0,0,0,0,0,-0.0303,-0.0299,-0.0265,-0.0265,-0.0261,-0.0239,-0.0233,-0.0209,-0.018,-0.021,-0.0207,-0.0201,-0.0141,-0.0129,-0.0125,-0.0087,-0.0096,-0.0094,-0.0092,-0.0091,-0.0035,-0.0035,0,0,0,0,0,0,-0.0314,-0.0301,-0.0267,-0.0263,-0.028,-0.0238,-0.0232,-0.0229,-0.0181,-0.0173,-0.0202,-0.02,-0.0134,-0.0128,-0.0122,-0.0111,-0.0093,-0.0091,-0.0089,-0.0035,-0.0035,-0.0035,0,0,0,0,0,0,-0.0315,-0.0311,-0.0269,-0.0281,-0.0274,-0.0238,-0.0235,-0.0228,-0.0216,-0.0174,-0.0166,-0.0197,-0.0134,-0.0126,-0.0101,-0.0108,-0.009,-0.0087,-0.0035,-0.0035,-0.0035,-0.0088,0,0,0,0,0,0,-0.0317,-0.0312,-0.0315,-0.0282,-0.0274,-0.0258,-0.0235,-0.0227,-0.0213,-0.021,-0.0167,-0.016,-0.0133,-0.0105,-0.0098,-0.0104,-0.0085,-0.0035,-0.0035,-0.0035,-0.0086,-0.009,-0.0093,0,0,0,0,0,-0.0319,-0.0326,-0.0316,-0.0312,-0.0279,-0.0258,-0.0252,-0.0225,-0.0214,-0.0212,-0.0181,-0.0161,-0.0102,-0.0103,-0.0095,-0.01,-0.0034,-0.0035,-0.0035,-0.0084,-0.0089,-0.0093,0,0,0,0,0,0,-0.0347,-0.0321,-0.031,-0.0309,-0.0288,-0.0252,-0.0249,-0.0229,-0.0204,-0.0201,-0.0161,-0.0152,-0.0133,-0.0109,-0.0111,-0.0084,-0.0065,-0.0064,-0.0106,-0.011,-0.0113,-0.0121,-0.0083,0,0,0,0,0,-0.0356,-0.0354,-0.0324,-0.0325,-0.0316,-0.0284,-0.0272,-0.0254,-0.0227,-0.0215,-0.0185,-0.0154,-0.0128,-0.0113,-0.0087,-0.0072,-0.004,-0.007,-0.0073,-0.0077,-0.0077,-0.0037,-0.0037,-0.0036,-0.0036,-0.0036,0,0,-0.0367,-0.0353,-0.0352,-0.0331,-0.0312,-0.0308,-0.0276,-0.0264,-0.0258,-0.0211,-0.0196,-0.0165,-0.0127,-0.0109,-0.0099,-0.009,-0.006,-0.0077,-0.008,-0.0078,-0.0037,-0.0037,-0.0037,-0.0036,-0.0036,-0.0036,0,0,-0.0394,-0.0377,-0.0386,-0.0373,-0.0351,-0.0329,-0.0328,-0.0295,-0.0278,-0.0259,-0.0225,-0.0198,-0.0159,-0.0133,-0.0114,-0.0122,-0.0081,-0.0114,-0.0138,-0.0099,-0.0099,-0.0098,-0.006,-0.0055,-0.0116,-0.0116,-0.0116,0,-0.0409,-0.0416,-0.0386,-0.0392,-0.0387,-0.0343,-0.0353,-0.0327,-0.029,-0.0277,-0.0262,-0.0202,-0.0171,-0.0146,-0.0147,-0.013,-0.0099,-0.0127,-0.0104,-0.0103,-0.0101,-0.0062,-0.0056,-0.0119,-0.0118,-0.0118,-0.0118,0,-0.0441,-0.0448,-0.0452,-0.0446,-0.0435,-0.0436,-0.04,-0.0384,-0.0357,-0.0328,-0.0296,-0.0249,-0.0212,-0.02,-0.0174,-0.015,-0.0129,-0.0115,-0.0096,-0.0105,-0.0062,-0.0055,-0.0122,-0.0121,-0.0121,-0.012,0,0,-0.0474,-0.0477,-0.0478,-0.0491,-0.0465,-0.0463,-0.045,-0.0425,-0.042,-0.0371,-0.0355,-0.0305,-0.0272,-0.0248,-0.0211,-0.0176,-0.0139,-0.0144,-0.014,-0.0109,-0.0049,0.0002,0.0015,-0.0119,-0.0118,-0.0118,-0.0024,0,-0.0511,-0.0544,-0.0528,-0.0556,-0.057,-0.0531,-0.0525,-0.0494,-0.0457,-0.0427,-0.0363,-0.0331,-0.0292,-0.0274,-0.0233,-0.0159,-0.0123,-0.0165,-0.0041,-0.0037,0.0006,0.0024,0.0045,0.0133,-0.0017,-0.0016,-0.0015,0,-0.0547,-0.0566,-0.0604,-0.062,-0.0622,-0.0626,-0.0612,-0.0598,-0.0536,-0.0504,-0.0451,-0.0395,-0.0327,-0.0297,-0.0175,-0.0202,-0.0132,-0.0075,-0.007,0.0002,0.0027,0.0119,0.0152,0.0266,-0.0004,-0.0005,-0.0006,0,-0.0594,-0.062,-0.0656,-0.066,-0.0664,-0.0671,-0.0664,-0.0622,-0.0611,-0.0543,-0.0522,-0.0434,-0.0382,-0.0285,-0.0154,-0.0164,-0.0015,-0.0016,0.0096,0.01,0.0155,0.0163,0.031,0.0064,0.0064,0.0064,0.0063,0,-0.0642,-0.0671,-0.0682,-0.0704,-0.0745,-0.0721,-0.0742,-0.0717,-0.0673,-0.0658,-0.0563,-0.0524,-0.0376,-0.0269,-0.0161,0.0002,-0.0016,0.0101,0.0132,0.0138,0.0143,0.0275,0.0323,0.0067,0.0066,0.0066,0.0065,0,-0.069,-0.0696,-0.0743,-0.0763,-0.0771,-0.0797,-0.0799,-0.0805,-0.0753,-0.0727,-0.0703,-0.0578,-0.0425,-0.0272,-0.0099,-0.0001,0.0226,0.0199,0.0201,0.023,0.0431,0.0474,0.0655,0.0738,0.0332,0.0334,0.0335,0,-0.0719,-0.0746,-0.0794,-0.0825,-0.0838,-0.0865,-0.088,-0.0846,-0.0842,-0.0757,-0.0743,-0.0591,-0.0466,-0.0179,0.0024,0.0238,0.032,0.0369,0.0353,0.0461,0.0531,0.0552,0.0609,0.0404,0.0406,0.0408,0.0409,0,-0.0772,-0.0786,-0.0827,-0.0891,-0.0924,-0.096,-0.0972,-0.098,-0.0926,-0.0882,-0.0782,-0.067,-0.0376,-0.01,0.0185,0.0301,0.0467,0.041,0.0524,0.061,0.0641,0.0728,0.0322,0.0424,0.0422,0.0421,0.0421,0.042,-0.0804,-0.0849,-0.0898,-0.0957,-0.0999,-0.1037,-0.1056,-0.104,-0.1017,-0.092,-0.0812,-0.0607,-0.0215,0.0204,0.0352,0.0648,0.0613,0.0714,0.076,0.0773,0.0852,0.0484,0.0618,0.0617,0.0617,0.0617,0.0617,0,-0.0845,-0.0893,-0.0957,-0.1026,-0.1074,-0.1078,-0.1102,-0.1087,-0.1044,-0.0906,-0.077,-0.0336,0.0049,0.0401,0.083,0.0984,0.1012,0.1049,0.1078,0.1123,0.0802,0.0804,0.0983,0.0982,0.0982,0.0982,0.0982,0.0982,-0.0867,-0.0939,-0.0976,-0.1067,-0.1108,-0.1143,-0.115,-0.1103,-0.1003,-0.0751,-0.0495,-0.0289,0.0218,0.0895,0.1275,0.1296,0.1433,0.1409,0.1499,0.1262,0.1233,0.1206,0.1221,0.1483,0.1484,0.1797,0.18,0.1802]}],[{"header":{"parameterUnit":"m.s-1","parameterCategory":2,"la1":30.2991,"la2":30.254,"lo1":-89.0895,"lo2":-89.0444,"dy":0.0017,"dx":0.0017,"nx":28,"ny":28,"refTime":"2024-03-18T21:00:00:Z","depth":"2","parameterNumber":2,"parameterNumberName":"U-component_of_CURRENTS"},"data":[0,0,0,0,0,0,0,0,0,0,0,0,0,0,0,0,0,0,0,0,0,0,0,0,0,0,0,0,0,0,0,0,0,0,0,0,0,0,0,0,0,0,0,0,0,0,0,0,0,0,0,0,0,0,0,0,0,0,-0.178,-0.1781,0,-0.1804,-0.1804,-0.1804,-0.1781,-0.1781,-0.178,-0.1779,-0.1765,-0.1766,-0.1766,0,0,0,0,0,0,0,0,0,0,0,0,0,-0.1728,-0.1729,-0.178,-0.1781,-0.1781,-0.1804,-0.1804,-0.1804,-0.1782,-0.1781,-0.178,-0.1779,-0.1765,-0.1766,-0.1766,0,0,0,0,0,0,0,0,0,0,0,0,0,-0.175,-0.173,-0.178,-0.1774,-0.1774,-0.1804,-0.1804,-0.1804,-0.1782,-0.1781,-0.1779,-0.1778,-0.1765,-0.1766,-0.1766,-0.1792,0,0,-0.1768,-0.1768,0,0,0,0,0,0,0,0,-0.1749,-0.1752,-0.1774,-0.1774,-0.1774,-0.179,-0.1781,-0.1799,-0.1782,-0.1777,-0.1779,-0.1778,-0.1772,-0.1772,-0.1777,-0.1792,-0.1791,-0.1768,-0.1768,-0.1768,-0.1768,0,0,0,0,0,0,0,-0.1747,-0.1751,-0.1788,-0.1775,-0.1775,-0.1774,-0.1776,-0.1784,-0.1779,-0.1777,-0.1776,-0.1782,-0.1771,-0.1777,-0.1777,-0.1791,-0.1768,-0.1768,-0.1769,-0.1769,-0.182,-0.1821,0,0,0,0,0,0,-0.1748,-0.1749,-0.1787,-0.1789,-0.176,-0.1776,-0.1778,-0.1785,-0.1779,-0.1778,-0.1783,-0.178,-0.1776,-0.1776,-0.1776,-0.1806,-0.1768,-0.1769,-0.1769,-0.1819,-0.1821,-0.1822,0,0,0,0,0,0,-0.1747,-0.1751,-0.1786,-0.177,-0.1775,-0.1778,-0.1786,-0.1786,-0.1788,-0.1784,-0.1782,-0.1785,-0.1776,-0.1775,-0.1786,-0.1805,-0.1769,-0.177,-0.1818,-0.182,-0.1821,-0.1866,0,0,0,0,0,0,-0.1745,-0.1751,-0.1756,-0.1771,-0.1776,-0.1806,-0.1788,-0.1787,-0.1794,-0.1792,-0.1786,-0.1783,-0.1775,-0.1785,-0.1786,-0.1805,-0.177,-0.1817,-0.1819,-0.1821,-0.1863,-0.1869,-0.1874,0,0,0,0,0,-0.1744,-0.1755,-0.1756,-0.176,-0.1783,-0.1807,-0.181,-0.1807,-0.1795,-0.1803,-0.1799,-0.1783,-0.1798,-0.1787,-0.1788,-0.1807,-0.1816,-0.1818,-0.182,-0.1861,-0.1868,-0.1874,0,0,0,0,0,0,-0.1732,-0.1755,-0.1755,-0.1772,-0.1789,-0.1804,-0.1809,-0.1811,-0.1815,-0.1809,-0.1798,-0.1797,-0.1814,-0.1807,-0.1794,-0.1828,-0.1805,-0.1807,-0.1835,-0.1841,-0.1847,-0.184,-0.177,0,0,0,0,0,-0.1734,-0.1745,-0.1769,-0.1779,-0.179,-0.1801,-0.1809,-0.1812,-0.182,-0.182,-0.1818,-0.1817,-0.1827,-0.183,-0.1835,-0.1856,-0.1842,-0.1868,-0.1874,-0.1878,-0.1874,-0.1877,-0.1882,-0.183,-0.183,-0.1829,0,0,-0.1731,-0.1744,-0.1749,-0.1777,-0.1787,-0.1813,-0.1802,-0.1819,-0.1839,-0.1819,-0.1837,-0.1836,-0.1837,-0.1859,-0.1866,-0.1853,-0.1888,-0.1881,-0.1885,-0.1878,-0.188,-0.1885,-0.1889,-0.1831,-0.1831,-0.1831,0,0,-0.1735,-0.1744,-0.1758,-0.1779,-0.1804,-0.1817,-0.1825,-0.1846,-0.1852,-0.1877,-0.1867,-0.1878,-0.1891,-0.1897,-0.1902,-0.1941,-0.1917,-0.1943,-0.1965,-0.1968,-0.1972,-0.1976,-0.197,-0.1973,-0.1946,-0.1946,-0.1946,0,-0.173,-0.1752,-0.1766,-0.1791,-0.1808,-0.1821,-0.1847,-0.1865,-0.1887,-0.1897,-0.1886,-0.1912,-0.1912,-0.194,-0.1951,-0.1953,-0.1944,-0.194,-0.1974,-0.1977,-0.198,-0.1974,-0.1976,-0.1948,-0.1948,-0.1948,-0.1947,0,-0.175,-0.1771,-0.1781,-0.1817,-0.184,-0.1861,-0.1894,-0.1915,-0.1923,-0.1939,-0.1964,-0.1967,-0.1977,-0.1987,-0.198,-0.2005,-0.1989,-0.1981,-0.1956,-0.1988,-0.1979,-0.1981,-0.1952,-0.1951,-0.195,-0.1949,0,0,-0.1724,-0.1784,-0.1785,-0.1809,-0.1854,-0.1875,-0.1915,-0.1953,-0.1978,-0.1996,-0.2021,-0.2041,-0.2033,-0.2037,-0.2034,-0.2038,-0.2053,-0.2016,-0.2015,-0.2006,-0.2051,-0.1965,-0.1958,-0.2047,-0.2048,-0.2048,-0.2039,0,-0.1731,-0.1778,-0.1808,-0.1852,-0.1879,-0.1913,-0.1952,-0.1989,-0.2013,-0.2044,-0.2053,-0.2073,-0.2057,-0.206,-0.2064,-0.2059,-0.2057,-0.2055,-0.2024,-0.2023,-0.1939,-0.1957,-0.1802,-0.1774,-0.204,-0.204,-0.204,0,-0.1732,-0.1766,-0.181,-0.1874,-0.1889,-0.192,-0.1975,-0.2011,-0.2061,-0.208,-0.2099,-0.2105,-0.2121,-0.2098,-0.2097,-0.2094,-0.2071,-0.2062,-0.2061,-0.1962,-0.1939,-0.1784,-0.1766,-0.2042,-0.2042,-0.2042,-0.2042,0,-0.1695,-0.1762,-0.1794,-0.1816,-0.1895,-0.1919,-0.1955,-0.2013,-0.204,-0.2093,-0.211,-0.2136,-0.2138,-0.2129,-0.2101,-0.2101,-0.2088,-0.2088,-0.199,-0.1984,-0.1835,-0.1814,-0.2077,-0.2077,-0.2077,-0.2077,-0.2077,0,-0.1683,-0.1708,-0.178,-0.1799,-0.1838,-0.1899,-0.1939,-0.1984,-0.2041,-0.2063,-0.2112,-0.2122,-0.2142,-0.2136,-0.2113,-0.2046,-0.2095,-0.1988,-0.1973,-0.1846,-0.1827,-0.2045,-0.2042,-0.2077,-0.2077,-0.2077,-0.2077,0,-0.163,-0.1682,-0.1721,-0.1799,-0.182,-0.1841,-0.1913,-0.194,-0.2006,-0.2034,-0.2047,-0.2108,-0.2098,-0.2102,-0.2089,-0.2044,-0.2005,-0.1966,-0.1809,-0.1775,-0.1899,-0.1899,-0.1866,-0.1863,-0.1861,-0.1858,-0.1856,0,-0.1607,-0.162,-0.1693,-0.1708,-0.1739,-0.1784,-0.1809,-0.1897,-0.1923,-0.2008,-0.2008,-0.2035,-0.2016,-0.1976,-0.1911,-0.1852,-0.1925,-0.1678,-0.1648,-0.1888,-0.1877,-0.1881,-0.1883,-0.1476,-0.1472,-0.1468,-0.1465,0,-0.1547,-0.157,-0.1597,-0.1629,-0.1657,-0.1689,-0.1734,-0.1757,-0.1848,-0.1878,-0.1902,-0.19,-0.1865,-0.1731,-0.1663,-0.1615,-0.168,-0.1594,-0.1883,-0.155,-0.1518,-0.1509,-0.1524,-0.1429,-0.1433,-0.1435,-0.1437,-0.1439,-0.1481,-0.1482,-0.1513,-0.153,-0.156,-0.1569,-0.1557,-0.1611,-0.1632,-0.1638,-0.1719,-0.1654,-0.1645,-0.1448,-0.1372,-0.1317,-0.1438,-0.1375,-0.1389,-0.1406,-0.1359,-0.1323,-0.1189,-0.1191,-0.1193,-0.1194,-0.1196,0,-0.1392,-0.1401,-0.1412,-0.1428,-0.1408,-0.1459,-0.148,-0.1443,-0.1418,-0.1437,-0.1419,-0.1265,-0.1164,-0.1167,-0.1012,-0.0984,-0.0993,-0.0955,-0.0962,-0.0996,-0.1027,-0.0963,-0.0687,-0.0685,-0.0684,-0.0683,0,0,-0.1348,-0.1321,-0.1326,-0.126,-0.1265,-0.1199,-0.1181,-0.1145,-0.1131,-0.1062,-0.1017,-0.1071,-0.1111,-0.0886,-0.0841,-0.0734,-0.0862,-0.07,-0.1106,-0.1147,-0.1176,-0.1263,-0.1201,0,0,0,0,0]},{"header":{"parameterUnit":"m.s-1","parameterCategory":2,"la1":30.2991,"la2":30.254,"lo1":-89.0895,"lo2":-89.0444,"dy":0.0017,"dx":0.0017,"nx":28,"ny":28,"refTime":"2024-03-18T21:00:00:Z","depth":"2","parameterNumber":3,"parameterNumberName":"V-component_of_CURRENTS"},"data":[0,0,0,0,0,0,0,0,0,0,0,0,0,0,0,0,0,0,0,0,0,0,0,0,0,0,0,0,0,0,0,0,0,0,0,0,0,0,0,0,0,0,0,0,0,0,0,0,0,0,0,0,0,0,0,0,0,0,-0.0168,-0.0168,0,-0.0118,-0.0118,-0.0117,-0.0082,-0.0082,-0.0082,-0.0082,-0.0018,-0.0016,-0.0015,0,0,0,0,0,0,0,0,0,0,0,0,0,-0.0204,-0.0203,-0.0168,-0.0168,-0.0167,-0.0118,-0.0118,-0.0117,-0.0083,-0.0082,-0.0082,-0.0082,-0.0018,-0.0016,-0.0015,0,0,0,0,0,0,0,0,0,0,0,0,0,-0.0174,-0.0203,-0.0168,-0.0144,-0.0142,-0.0119,-0.0118,-0.0117,-0.0083,-0.0082,-0.0082,-0.0082,-0.0019,-0.0017,-0.0014,-0.0007,0,0,-0.0007,-0.0006,0,0,0,0,0,0,0,0,-0.0176,-0.0173,-0.0149,-0.0146,-0.0143,-0.0107,-0.0107,-0.0079,-0.0083,-0.0105,-0.0082,-0.0081,-0.0047,-0.0042,-0.0033,-0.0004,-0.0001,-0.0007,-0.0006,-0.0005,-0.0004,0,0,0,0,0,0,0,-0.0178,-0.0175,-0.0148,-0.0148,-0.0145,-0.0126,-0.0122,-0.0101,-0.0077,-0.0103,-0.01,-0.0095,-0.0045,-0.0035,-0.0031,-0.0,-0.0007,-0.0005,-0.0004,-0.0003,0.0043,0.0043,0,0,0,0,0,0,-0.0187,-0.0177,-0.015,-0.0147,-0.016,-0.0126,-0.0121,-0.0118,-0.0078,-0.0072,-0.0096,-0.0094,-0.0039,-0.0034,-0.0029,-0.002,-0.0005,-0.0003,-0.0001,0.0043,0.0043,0.0043,0,0,0,0,0,0,-0.0188,-0.0185,-0.0152,-0.0161,-0.0155,-0.0126,-0.0123,-0.0118,-0.0108,-0.0073,-0.0066,-0.0092,-0.0039,-0.0032,-0.0012,-0.0017,-0.0002,0.0,0.0043,0.0043,0.0043,-0.0001,0,0,0,0,0,0,-0.0189,-0.0186,-0.0189,-0.0161,-0.0155,-0.0144,-0.0123,-0.0117,-0.0106,-0.0103,-0.0068,-0.0061,-0.0038,-0.0015,-0.001,-0.0014,0.0002,0.0044,0.0043,0.0043,0.0001,-0.0003,-0.0005,0,0,0,0,0,-0.0191,-0.0198,-0.019,-0.0186,-0.016,-0.0144,-0.0139,-0.0116,-0.0106,-0.0106,-0.008,-0.0062,-0.0013,-0.0014,-0.0007,-0.0011,0.0044,0.0043,0.0043,0.0002,-0.0002,-0.0005,0,0,0,0,0,0,-0.0216,-0.0194,-0.0185,-0.0185,-0.0168,-0.0138,-0.0137,-0.0121,-0.01,-0.0098,-0.0063,-0.0055,-0.004,-0.0019,-0.0021,0.0002,0.0018,0.0019,-0.0016,-0.0019,-0.0022,-0.003,0.0004,0,0,0,0,0,-0.0223,-0.0223,-0.0198,-0.02,-0.0193,-0.0166,-0.0157,-0.0142,-0.012,-0.011,-0.0085,-0.0058,-0.0036,-0.0023,-0.0002,0.0011,0.0039,0.0014,0.0011,0.0008,0.0006,0.0045,0.0045,0.0042,0.0042,0.0042,0,0,-0.0233,-0.0222,-0.0221,-0.0205,-0.019,-0.0188,-0.016,-0.0151,-0.0147,-0.0107,-0.0095,-0.0069,-0.0035,-0.0021,-0.0012,-0.0004,0.0023,0.0008,0.0005,0.0005,0.0045,0.0045,0.0046,0.0042,0.0042,0.0042,0,0,-0.0258,-0.0244,-0.0254,-0.0243,-0.0226,-0.0208,-0.0208,-0.0181,-0.0166,-0.0151,-0.0121,-0.0097,-0.0066,-0.0041,-0.0024,-0.003,0.0004,-0.0026,-0.0045,-0.0008,-0.0007,-0.0006,0.0026,0.003,-0.0026,-0.0026,-0.0026,0,-0.0272,-0.0281,-0.0254,-0.0262,-0.0259,-0.022,-0.0231,-0.0209,-0.0179,-0.0167,-0.0155,-0.0103,-0.0075,-0.005,-0.0052,-0.0038,-0.0012,-0.0036,-0.0012,-0.0011,-0.0009,0.0024,0.0029,-0.0028,-0.0028,-0.0027,-0.0027,0,-0.0303,-0.0311,-0.0316,-0.0313,-0.0304,-0.0307,-0.0275,-0.0263,-0.024,-0.0213,-0.0185,-0.0143,-0.0111,-0.0099,-0.0077,-0.0053,-0.0037,-0.0022,-0.0005,-0.0011,0.0024,0.003,-0.0031,-0.003,-0.003,-0.0029,0,0,-0.0335,-0.0339,-0.0341,-0.0354,-0.0332,-0.0332,-0.0321,-0.03,-0.0295,-0.0252,-0.0237,-0.0193,-0.0162,-0.0141,-0.0107,-0.0073,-0.0039,-0.0046,-0.0043,-0.0018,0.0042,0.0074,0.0085,-0.0019,-0.0018,-0.0018,0.0061,0,-0.0369,-0.0403,-0.0389,-0.0417,-0.0431,-0.0396,-0.039,-0.0363,-0.033,-0.0303,-0.0242,-0.0214,-0.0179,-0.0164,-0.0124,-0.0059,-0.0024,-0.0062,0.0048,0.0051,0.0078,0.0092,0.0066,0.0136,0.0067,0.0068,0.0069,0,-0.0406,-0.0424,-0.0461,-0.0476,-0.0478,-0.0484,-0.0471,-0.0459,-0.0402,-0.0372,-0.0323,-0.0272,-0.0209,-0.0181,-0.0071,-0.0096,-0.0034,0.0018,0.0022,0.0073,0.0095,0.0133,0.015,0.0079,0.0079,0.0078,0.0077,0,-0.0449,-0.0475,-0.0509,-0.0514,-0.0518,-0.0526,-0.052,-0.0481,-0.0471,-0.0408,-0.039,-0.0307,-0.0262,-0.0172,-0.0057,-0.0064,0.0066,0.0072,0.0159,0.0162,0.0172,0.0175,0.0146,0.0146,0.0145,0.0145,0.0145,0,-0.0495,-0.0522,-0.0535,-0.0556,-0.0595,-0.0573,-0.0593,-0.0571,-0.0529,-0.0516,-0.0428,-0.0394,-0.0257,-0.0163,-0.0065,0.0074,0.0066,0.0162,0.0188,0.0156,0.0156,0.0132,0.0129,0.0148,0.0147,0.0147,0.0146,0,-0.054,-0.0546,-0.0592,-0.0612,-0.062,-0.0645,-0.0648,-0.0653,-0.0605,-0.0583,-0.0561,-0.0449,-0.0318,-0.0179,-0.0022,0.0065,0.0192,0.0239,0.0193,0.0213,0.0261,0.0255,0.0342,0.0343,0.0345,0.0346,0.0347,0,-0.0567,-0.0594,-0.064,-0.067,-0.0684,-0.071,-0.0725,-0.0693,-0.0689,-0.0615,-0.0603,-0.0474,-0.0369,-0.012,0.0057,0.0245,0.0239,0.0322,0.0308,0.0266,0.0283,0.0274,0.0267,0.0301,0.0302,0.0302,0.0303,0,-0.0618,-0.0632,-0.0671,-0.0733,-0.0766,-0.0799,-0.0812,-0.0818,-0.0768,-0.073,-0.0648,-0.0556,-0.0311,-0.0093,0.0153,0.025,0.0292,0.034,0.0318,0.0256,0.0235,0.0249,0.0241,0.0308,0.0307,0.0307,0.0307,0.0306,-0.0649,-0.0691,-0.0739,-0.0796,-0.0836,-0.0871,-0.0888,-0.0875,-0.0854,-0.0769,-0.0684,-0.0515,-0.0309,0.0052,0.022,0.037,0.0359,0.0393,0.0388,0.0384,0.0365,0.0348,0.0439,0.0439,0.044,0.044,0.044,0,-0.0688,-0.0733,-0.0795,-0.086,-0.0907,-0.0912,-0.0932,-0.0915,-0.0877,-0.0764,-0.0652,-0.0414,-0.0165,0.005,0.0299,0.0443,0.0416,0.0457,0.0397,0.0391,0.0386,0.0365,0.0441,0.0441,0.0442,0.0442,0,0,-0.0709,-0.0777,-0.0811,-0.0897,-0.0939,-0.0972,-0.0976,-0.093,-0.0843,-0.0714,-0.0575,-0.0399,-0.0143,0.0037,0.0213,0.0343,0.0327,0.0345,0.0327,0.0229,0.0223,0.033,0.029,0,0,0,0,0]}],[{"header":{"parameterUnit":"m.s-1","parameterCategory":2,"la1":30.2991,"la2":30.254,"lo1":-89.0895,"lo2":-89.0444,"dy":0.0017,"dx":0.0017,"nx":28,"ny":28,"refTime":"2024-03-18T21:00:00:Z","depth":"4","parameterNumber":2,"parameterNumberName":"U-component_of_CURRENTS"},"data":[0,0,0,0,0,0,0,0,0,0,0,0,0,0,0,0,0,0,0,0,0,0,0,0,0,0,0,0,0,0,0,0,0,0,0,0,0,0,0,0,0,0,0,0,0,0,0,0,0,0,0,0,0,0,0,0,0,0,-0.1281,-0.1281,0,-0.1326,-0.1327,-0.1327,-0.1353,-0.1353,-0.1353,-0.1353,-0.1394,-0.1395,-0.1396,0,0,0,0,0,0,0,0,0,0,0,0,0,-0.1217,-0.1217,-0.1281,-0.1281,-0.1282,-0.1326,-0.1327,-0.1327,-0.1353,-0.1353,-0.1353,-0.1353,-0.1394,-0.1395,-0.1396,0,0,0,0,0,0,0,0,0,0,0,0,0,-0.1251,-0.1218,-0.1281,-0.1301,-0.1303,-0.1326,-0.1327,-0.1328,-0.1353,-0.1353,-0.1353,-0.1353,-0.1394,-0.1395,-0.1396,-0.14,0,0,-0.1401,-0.1401,0,0,0,0,0,0,0,0,-0.1249,-0.1253,-0.1297,-0.1299,-0.1302,-0.1335,-0.1319,-0.1352,-0.1353,-0.1333,-0.1353,-0.1354,-0.1374,-0.1377,-0.1384,-0.1402,-0.1404,-0.1401,-0.1402,-0.1402,-0.1403,0,0,0,0,0,0,0,-0.1246,-0.1251,-0.1298,-0.1298,-0.1301,-0.1308,-0.1313,-0.1326,-0.1351,-0.1335,-0.1337,-0.1343,-0.1376,-0.1383,-0.1385,-0.1404,-0.1401,-0.1402,-0.1403,-0.1403,-0.1481,-0.1482,0,0,0,0,0,0,-0.1242,-0.1249,-0.1296,-0.1299,-0.1276,-0.1309,-0.1314,-0.1323,-0.1351,-0.1356,-0.1343,-0.1344,-0.138,-0.1384,-0.1387,-0.1446,-0.1402,-0.1404,-0.1404,-0.148,-0.1481,-0.1482,0,0,0,0,0,0,-0.1241,-0.1246,-0.1295,-0.1276,-0.1282,-0.131,-0.132,-0.1324,-0.1351,-0.1358,-0.1362,-0.1367,-0.1381,-0.1385,-0.1418,-0.1446,-0.1404,-0.1405,-0.1478,-0.148,-0.1482,-0.153,0,0,0,0,0,0,-0.1239,-0.1245,-0.1261,-0.1275,-0.1283,-0.1322,-0.132,-0.1325,-0.1354,-0.1356,-0.1379,-0.1382,-0.1381,-0.1416,-0.142,-0.1447,-0.1407,-0.1477,-0.1479,-0.1481,-0.1527,-0.1533,-0.1539,0,0,0,0,0,-0.1236,-0.1252,-0.1262,-0.1268,-0.1301,-0.1322,-0.1328,-0.1347,-0.1355,-0.1371,-0.1389,-0.1383,-0.1433,-0.1419,-0.1422,-0.145,-0.1475,-0.1478,-0.1481,-0.1524,-0.1532,-0.1538,0,0,0,0,0,0,-0.1232,-0.1257,-0.1267,-0.129,-0.1312,-0.1327,-0.1346,-0.1359,-0.1386,-0.1394,-0.1399,-0.1403,-0.1442,-0.144,-0.1424,-0.1479,-0.1453,-0.1457,-0.1485,-0.1492,-0.1498,-0.149,-0.1408,0,0,0,0,0,-0.1238,-0.1257,-0.128,-0.13,-0.1312,-0.1334,-0.1349,-0.1364,-0.1384,-0.1398,-0.1415,-0.1434,-0.1453,-0.1468,-0.1482,-0.1514,-0.1499,-0.1534,-0.154,-0.1545,-0.1542,-0.1546,-0.1551,-0.1491,-0.1491,-0.1491,0,0,-0.1243,-0.1258,-0.1271,-0.1301,-0.1318,-0.1344,-0.1344,-0.1373,-0.1402,-0.1397,-0.1445,-0.1457,-0.1466,-0.1502,-0.1519,-0.1506,-0.1556,-0.1548,-0.1552,-0.1546,-0.1549,-0.1555,-0.156,-0.1493,-0.1493,-0.1492,0,0,-0.1252,-0.1275,-0.1294,-0.1315,-0.1348,-0.1363,-0.1377,-0.1407,-0.143,-0.1472,-0.1477,-0.1506,-0.1539,-0.155,-0.1559,-0.1606,-0.1586,-0.1615,-0.1642,-0.1647,-0.1651,-0.1655,-0.1646,-0.1648,-0.1619,-0.1619,-0.1619,0,-0.1259,-0.1284,-0.1303,-0.1327,-0.1348,-0.1374,-0.1401,-0.1429,-0.147,-0.1491,-0.1495,-0.1549,-0.156,-0.1597,-0.1615,-0.162,-0.1612,-0.1614,-0.1653,-0.1657,-0.166,-0.1649,-0.1652,-0.1622,-0.1622,-0.1621,-0.1621,0,-0.1276,-0.1307,-0.132,-0.1359,-0.1386,-0.1414,-0.1451,-0.1488,-0.1519,-0.1542,-0.1593,-0.1609,-0.1636,-0.165,-0.1649,-0.1683,-0.1667,-0.1659,-0.1633,-0.1669,-0.1656,-0.1657,-0.1626,-0.1625,-0.1624,-0.1623,0,0,-0.1257,-0.1321,-0.1327,-0.1356,-0.1407,-0.143,-0.1482,-0.153,-0.1568,-0.1609,-0.1649,-0.1688,-0.1694,-0.1704,-0.1708,-0.1717,-0.1737,-0.1701,-0.17,-0.1687,-0.1738,-0.1608,-0.1597,-0.1736,-0.1737,-0.1737,-0.172,0,-0.1265,-0.1313,-0.1345,-0.14,-0.1428,-0.1474,-0.152,-0.157,-0.1612,-0.1659,-0.1683,-0.1722,-0.1716,-0.1733,-0.1743,-0.1741,-0.1743,-0.1741,-0.1709,-0.1708,-0.1583,-0.1595,-0.1739,-0.1721,-0.1721,-0.1722,-0.1722,0,-0.1263,-0.1299,-0.1351,-0.1425,-0.1443,-0.1485,-0.1559,-0.1603,-0.1669,-0.1702,-0.1739,-0.1757,-0.1786,-0.1771,-0.1778,-0.1778,-0.176,-0.1751,-0.175,-0.161,-0.1579,-0.1677,-0.1724,-0.1724,-0.1724,-0.1723,-0.1723,0,-0.1224,-0.13,-0.1344,-0.1369,-0.1456,-0.1497,-0.1544,-0.1616,-0.1653,-0.1725,-0.175,-0.1791,-0.1805,-0.1802,-0.1781,-0.1787,-0.1771,-0.1775,-0.1639,-0.163,-0.1732,-0.1728,-0.1768,-0.1768,-0.1768,-0.1768,-0.1768,0,-0.1204,-0.1242,-0.1337,-0.1361,-0.142,-0.1486,-0.1549,-0.1603,-0.1672,-0.1698,-0.1763,-0.1772,-0.1813,-0.1806,-0.179,-0.1704,-0.1775,-0.1633,-0.1613,-0.1753,-0.1752,-0.1732,-0.1729,-0.1767,-0.1768,-0.1768,-0.1768,0,-0.1146,-0.1211,-0.1267,-0.1368,-0.1402,-0.1441,-0.1538,-0.1572,-0.1651,-0.1683,-0.1703,-0.1762,-0.1745,-0.1759,-0.1748,-0.169,-0.1641,-0.1592,-0.1732,-0.1721,-0.1499,-0.1499,-0.1445,-0.144,-0.1436,-0.1432,-0.143,0,-0.1117,-0.1142,-0.1252,-0.1284,-0.1333,-0.1405,-0.1445,-0.1544,-0.157,-0.1649,-0.1644,-0.1668,-0.1685,-0.1564,-0.1599,-0.1548,-0.1526,-0.1498,-0.1505,-0.1479,-0.1465,-0.1471,-0.1475,-0.1423,-0.1422,-0.1421,-0.142,0,-0.1055,-0.1105,-0.115,-0.1214,-0.1268,-0.1317,-0.1381,-0.1391,-0.1481,-0.1569,-0.1532,-0.1511,-0.1485,-0.1469,-0.1431,-0.14,-0.152,-0.1455,-0.1464,-0.1471,-0.1452,-0.1444,-0.1453,-0.1406,-0.1408,-0.1409,-0.141,0,-0.1004,-0.1018,-0.108,-0.1123,-0.1186,-0.1198,-0.1252,-0.1272,-0.1309,-0.14,-0.1379,-0.1403,-0.1459,-0.1389,-0.1357,-0.1311,-0.1296,-0.1259,-0.1278,-0.1294,-0.1251,-0.1206,-0.1055,0,0,0,0,0,-0.0942,-0.0948,-0.0983,-0.1025,-0.1079,-0.1108,-0.1191,-0.1246,-0.1336,-0.1267,-0.1319,-0.1283,-0.1232,-0.1255,-0.1173,-0.1291,-0.1306,-0.1192,-0.1276,-0.1327,-0.1343,-0.1306,0,0,0,0,0,0,-0.0904,-0.0934,-0.0946,-0.0922,-0.0928,-0.097,-0.1013,-0.1079,-0.1055,-0.115,-0.1128,-0.1194,-0.1167,-0.1245,-0.114,-0.1145,-0.1168,-0.1218,-0.1214,-0.1318,-0.1333,-0.1346,-0.1313,0,0,0,0,0]},{"header":{"parameterUnit":"m.s-1","parameterCategory":2,"la1":30.2991,"la2":30.254,"lo1":-89.0895,"lo2":-89.0444,"dy":0.0017,"dx":0.0017,"nx":28,"ny":28,"refTime":"2024-03-18T21:00:00:Z","depth":"4","parameterNumber":3,"parameterNumberName":"V-component_of_CURRENTS"},"data":[0,0,0,0,0,0,0,0,0,0,0,0,0,0,0,0,0,0,0,0,0,0,0,0,0,0,0,0,0,0,0,0,0,0,0,0,0,0,0,0,0,0,0,0,0,0,0,0,0,0,0,0,0,0,0,0,0,0,-0.0096,-0.0095,0,-0.0067,-0.0066,-0.0066,-0.0043,-0.0043,-0.0043,-0.0043,0.0001,0.0002,0.0003,0,0,0,0,0,0,0,0,0,0,0,0,0,-0.0112,-0.0112,-0.0096,-0.0095,-0.0095,-0.0067,-0.0066,-0.0066,-0.0043,-0.0043,-0.0043,-0.0043,0.0001,0.0002,0.0003,0,0,0,0,0,0,0,0,0,0,0,0,0,-0.0096,-0.0112,-0.0096,-0.0081,-0.0079,-0.0067,-0.0066,-0.0066,-0.0043,-0.0043,-0.0043,-0.0043,0.0001,0.0002,0.0004,0.0008,0,0,0.0008,0.0009,0,0,0,0,0,0,0,0,-0.0097,-0.0095,-0.0083,-0.0082,-0.008,-0.0059,-0.0056,-0.004,-0.0043,-0.0056,-0.0043,-0.0043,-0.0018,-0.0015,-0.0009,0.001,0.0012,0.0008,0.0009,0.001,0.001,0,0,0,0,0,0,0,-0.0098,-0.0096,-0.0084,-0.0083,-0.0081,-0.0069,-0.0066,-0.0053,-0.0038,-0.0055,-0.0054,-0.0051,-0.0017,-0.0011,-0.0008,0.0013,0.0008,0.001,0.0011,0.0011,0.0041,0.0041,0,0,0,0,0,0,-0.0104,-0.0097,-0.0084,-0.0083,-0.0088,-0.0069,-0.0066,-0.0065,-0.0039,-0.0035,-0.0052,-0.005,-0.0014,-0.001,-0.0007,-0.0001,0.001,0.0011,0.0012,0.0042,0.0041,0.0041,0,0,0,0,0,0,-0.0104,-0.0103,-0.0086,-0.009,-0.0087,-0.0069,-0.0068,-0.0065,-0.006,-0.0036,-0.0032,-0.0051,-0.0013,-0.0009,0.0004,0.0001,0.0012,0.0013,0.0042,0.0042,0.0041,0.001,0,0,0,0,0,0,-0.0105,-0.0103,-0.0107,-0.009,-0.0087,-0.0083,-0.0069,-0.0065,-0.0059,-0.0058,-0.0034,-0.0029,-0.0013,0.0002,0.0005,0.0003,0.0015,0.0042,0.0042,0.0041,0.0011,0.0009,0.0007,0,0,0,0,0,-0.0106,-0.0113,-0.0108,-0.0106,-0.0092,-0.0084,-0.0081,-0.0067,-0.006,-0.0061,-0.0043,-0.003,0.0003,0.0003,0.0007,0.0005,0.0042,0.0042,0.0041,0.0012,0.0009,0.0007,0,0,0,0,0,0,-0.0122,-0.011,-0.0105,-0.0108,-0.0099,-0.008,-0.0081,-0.007,-0.0058,-0.0056,-0.0032,-0.0026,-0.0017,-0.0002,-0.0003,0.0013,0.0025,0.0025,0.0001,-0.0002,-0.0004,-0.0012,0.0016,0,0,0,0,0,-0.0128,-0.0131,-0.0116,-0.0119,-0.0116,-0.0099,-0.0095,-0.0086,-0.0071,-0.0066,-0.0048,-0.003,-0.0014,-0.0005,0.0009,0.0018,0.0039,0.002,0.0018,0.0016,0.0013,0.0046,0.0046,0.004,0.004,0.004,0,0,-0.0135,-0.013,-0.0131,-0.0123,-0.0115,-0.0117,-0.0096,-0.0094,-0.0093,-0.0063,-0.0058,-0.0039,-0.0014,-0.0005,0.0001,0.0008,0.0027,0.0015,0.0013,0.0011,0.0046,0.0046,0.0047,0.004,0.004,0.004,0,0,-0.0155,-0.0147,-0.0158,-0.0152,-0.0144,-0.0133,-0.0134,-0.0118,-0.0108,-0.0101,-0.0078,-0.006,-0.0041,-0.002,-0.0007,-0.0013,0.0012,-0.001,-0.0025,0.0007,0.0008,0.0009,0.003,0.0034,-0.0009,-0.0009,-0.0009,0,-0.0166,-0.0176,-0.0159,-0.0168,-0.0168,-0.0143,-0.0154,-0.014,-0.0122,-0.0113,-0.0105,-0.0068,-0.0047,-0.0027,-0.0029,-0.0018,0.0001,-0.0018,0.0004,0.0005,0.0007,0.0029,0.0033,-0.0011,-0.001,-0.001,-0.001,0,-0.0192,-0.0201,-0.0207,-0.021,-0.0206,-0.0212,-0.0191,-0.0185,-0.017,-0.0152,-0.0131,-0.0099,-0.0075,-0.0065,-0.0049,-0.0029,-0.0019,-0.0005,0.001,0.0006,0.0029,0.0034,-0.0013,-0.0012,-0.0012,-0.0011,0,0,-0.0215,-0.0225,-0.0228,-0.0241,-0.023,-0.0233,-0.0228,-0.0216,-0.0214,-0.0184,-0.0175,-0.0139,-0.0115,-0.0099,-0.0071,-0.0042,-0.0016,-0.0023,-0.0021,-0.0004,0.0048,0.0044,0.0049,0.0004,0.0004,0.0005,0.0059,0,-0.0242,-0.0274,-0.0267,-0.0294,-0.0308,-0.0286,-0.0285,-0.0268,-0.0245,-0.0228,-0.0178,-0.0158,-0.0129,-0.0118,-0.0083,-0.0031,-0.0004,-0.0032,0.0052,0.0054,0.005,0.0055,0.0007,0.0062,0.0063,0.0064,0.0065,0,-0.0271,-0.0289,-0.0324,-0.0342,-0.0346,-0.0356,-0.0353,-0.0348,-0.0307,-0.0285,-0.0246,-0.0206,-0.0155,-0.0132,-0.0042,-0.0061,-0.0014,0.0028,0.0031,0.0041,0.0059,0.007,0.0074,0.0073,0.0072,0.0072,0.0071,0,-0.0301,-0.033,-0.0362,-0.0368,-0.038,-0.0392,-0.0393,-0.0367,-0.0363,-0.0317,-0.0305,-0.0235,-0.0201,-0.0127,-0.0039,-0.0039,0.0058,0.0071,0.0112,0.0112,0.0113,0.0112,0.0129,0.0129,0.0128,0.0128,0.0128,0,-0.0331,-0.0359,-0.0383,-0.0402,-0.0441,-0.043,-0.0455,-0.0441,-0.0414,-0.0406,-0.0337,-0.0312,-0.0198,-0.0126,-0.0048,0.0047,0.0056,0.0109,0.0128,0.0098,0.0094,0.0116,0.0114,0.013,0.013,0.0129,0.0129,0,-0.0358,-0.0373,-0.0417,-0.0446,-0.046,-0.0486,-0.0502,-0.051,-0.0478,-0.0465,-0.0449,-0.0362,-0.0264,-0.0155,-0.003,0.0031,0.0124,0.0152,0.0106,0.0121,0.0157,0.0152,0.0203,0.0204,0.0204,0.0204,0.0205,0,-0.0374,-0.0399,-0.0456,-0.0489,-0.0508,-0.0541,-0.0561,-0.0544,-0.0541,-0.0494,-0.0484,-0.0394,-0.0325,-0.0148,-0.0036,0.0115,0.0134,0.0178,0.0173,0.0152,0.0166,0.0161,0.0156,0.0205,0.0205,0.0205,0.0205,0,-0.0403,-0.0426,-0.0464,-0.0531,-0.057,-0.0607,-0.0627,-0.0628,-0.0597,-0.0575,-0.05,-0.0401,-0.0293,-0.0149,-0.0032,0.0075,0.015,0.0181,0.0181,0.0177,0.0155,0.0167,0.0162,0.0206,0.0206,0.0206,0.0206,0,-0.0423,-0.0459,-0.051,-0.0565,-0.0619,-0.065,-0.0661,-0.0643,-0.063,-0.0564,-0.0542,-0.0414,-0.0335,-0.0171,-0.0064,0.0044,0.0069,0.01,0.0105,0.0105,0.0062,0.0017,0.0043,0,0,0,0,0,-0.0436,-0.0477,-0.0537,-0.0597,-0.0649,-0.0674,-0.0693,-0.0687,-0.0657,-0.0606,-0.0568,-0.0461,-0.0285,-0.0206,-0.0099,-0.007,0.0075,0.0057,0.011,0.0212,0.0211,0.0176,0,0,0,0,0,0,-0.0447,-0.0506,-0.0538,-0.0605,-0.0646,-0.0694,-0.0705,-0.0688,-0.0646,-0.0603,-0.0505,-0.0443,-0.027,-0.0345,-0.0099,-0.0067,-0.002,0.0144,0.0146,0.0213,0.0212,0.0211,0.0175,0,0,0,0,0]}]]